SCP
0 0 0 0 0 0 0 0 0 -0 -0 0 0 0 -0 -0 -0 -0 -0 0 0 0 0 0 0 0 0 0 0 0 0 0 0 0 0 0 0 0 0 0 -0 -0 -0 -0
-0 0 0 0 0 0 0 0 0 0 -0 -0 0 -0 -0 -0 0 0 0 0 0 0 -0 0 0 0 0 0 0 0 0 0 0 0 0 0 0 0 0 0 0 0 0 0
0 0 0 0 0 0 0 0 0 0 -0 0 0 0 0 0 0 0 0 0 0 0 0 0 0 0 0 0 0 0 0 0 0 0 0 0 0 0 0 0 0 0 0 -0
0 0 0 0 0 0 0 0 0 0 0 0 0 0 0 0 0 0 0 0 0 0 0 0 0 0 0 0 0 0 0 0 1 0 0 1 0 0 0 0 0 0 0 -0
0 0 0 0 0 0 0 0 0 0 0 0 0 0 0 0 0 0 1 1 0 0 0 0 0 0 0 0 0 0 0 1 1 1 1 1 0 0 0 0 0 0 0 0
0 0 1 0 0 0 0 0 0 0 0 0 0 0 0 0 0 0 0 0 2 1 0 0 0 0 0 0 0 0 0 1 1 1 1 1 1 1 1 1 0 0 0 -0
0 0 0 0 0 0 0 0 0 0 0 0 0 0 0 0 0 0 0 0 0 1 1 2 1 0 0 0 0 0 0 1 1 1 1 1 2 2 2 2 1 1 0 0
0 0 0 0 0 0 0 0 0 0 0 0 0 0 0 0 0 0 0 0 0 0 0 1 3 4 3 2 1 1 1 1 1 1 2 2 2 2 2 2 2 2 1 1
0 0 0 0 0 0 0 0 0 0 0 0 0 0 0 0 0 0 0 0 0 0 0 0 1 4 4 5 1 1 2 1 2 2 1 1 2 2 3 3 2 3 3 2
0 0 0 0 0 0 0 0 0 0 0 0 0 0 0 0 0 0 0 0 0 0 0 0 0 1 3 5 4 3 3 2 3 2 2 2 3 3 3 4 3 3 3 3
0 0 0 0 0 0 0 0 0 0 0 0 0 0 0 0 0 0 0 0 0 0 0 0 0 0 0 3 3 3 2 3 3 4 3 2 3 3 4 4 4 4 4 5
0 0 0 0 0 0 0 0 0 0 0 0 0 0 0 0 0 0 0 0 0 0 0 0 0 0 0 0 1 1 1 2 2 2 2 2 1 0 0 0 0 0 0 3
0 0 0 0 0 0 0 0 0 0 0 0 0 0 0 0 0 0 0 0 0 0 0 0 0 0 0 0 0 0 1 1 1 1 1 2 1 0 0 0 0 0 0 0
0 0 0 0 0 0 0 0 0 -0 0 0 0 0 0 0 0 0 0 0 0 0 0 0 0 0 0 0 0 0 0 1 0 1 1 2 2 1 1 1 0 0 0 0
0 0 0 0 0 0 0 0 0 0 -0 0 0 0 0 0 0 0 0 0 0 0 0 0 0 0 0 0 0 0 0 0 0 0 1 1 2 2 1 1 1 0 0 0
0 0 0 0 0 0 0 0 0 0 0 0 -0 0 0 0 0 0 0 0 0 0 0 0 0 0 0 0 0 0 0 0 0 0 0 1 1 1 1 0 0 0 0 0
-0 -0 0 0 0 0 0 0 0 0 -0 0 0 0 0 0 0 0 -0 -0 -0 -0 -0 -0 0 0 0 0 0 0 0 0 0 0 -0 -0 0 1 1 0 0 0 0 0
0 -0 -0 0 0 0 0 0 0 0 0 0 0 0 0 0 0 0 -0 -0 -0 -0 -0 -0 -0 -0 -0 -0 -0 -0 0 -0 -0 0 -0 -0 -1 0 1 0 0 0 0 0
0 0 0 0 -0 0 0 0 0 0 0 0 0 0 0 0 0 0 0 0 -0 -0 -0 -0 -0 -0 -0 -0 -0 -0 -0 -0 -0 1 0 0 0 0 0 0 0 0 0 0
-0 -0 0 0 0 0 -0 0 0 0 0 0 0 0 0 0 0 0 0 0 0 0 0 -0 -0 -0 -0 -0 -0 -0 -0 -0 0 0 0 0 0 0 0 0 0 0 0 0
-0 -0 -0 -0 0 0 0 0 0 0 0 0 0 0 0 0 0 0 0 0 0 0 0 0 0 0 0 0 -0 -0 -0 0 0 0 0 0 0 0 0 0 0 0 0 0
-0 -0 -0 -0 -0 -0 -0 0 -0 0 0 0 0 0 0 0 0 0 0 0 0 0 0 0 0 0 0 0 0 0 0 0 0 0 0 0 0 0 0 0 0 0 0 0
-0 -0 -0 -0 -0 -0 -0 -0 -0 0 0 0 0 0 0 0 0 0 0 0 0 0 0 0 0 0 0 0 0 0 0 0 0 0 0 0 0 0 0 0 0 0 0 0
-0 -0 -0 -0 -0 -0 -0 -0 -0 -0 -0 0 -0 -0 0 0 0 0 0 0 0 0 0 0 0 0 0 0 0 0 0 0 0 0 0 0 0 0 0 0 0 0 0 0
-0 -0 -0 -0 -0 -0 -0 -0 -0 -0 0 -0 -0 -0 -0 0 0 0 0 0 0 0 0 0 0 0 0 0 0 0 0 0 0 0 0 0 0 0 0 0 0 0 0 0
-0 -0 -0 -0 -0 -0 -0 -0 -0 -0 -0 0 0 0 0 -0 -0 -0 -0 -0 0 0 0 0 0 0 0 0 0 0 0 0 0 0 0 0 0 0 0 0 0 0 0 0
0 0 0 0 0 -0 -0 -0 -0 -0 -0 -0 0 0 0 0 -0 -0 -0 -0 -0 -0 -0 0 0 0 0 0 0 0 0 0 0 0 0 0 0 -0 0 0 0 0 0 0
Wind_Speed_500mb
17 21 33 41 51 54 30 29 17 28 23 23 20 22 17 41 73 64 67 88 89 94 100 101 102 101 107 108 105 100 101 103 100 92 89 83 78 77 76 76 74 74 74 78
11 21 47 42 46 38 44 37 33 26 23 13 17 16 30 38 50 53 69 88 94 99 99 100 107 110 110 108 102 95 96 93 88 92 89 83 78 75 75 75 72 71 74 77
11 15 33 19 13 25 24 27 8 15 5 16 18 27 37 48 38 30 67 84 94 99 101 105 107 107 110 109 100 98 95 94 90 89 88 82 78 78 78 75 72 72 72 73
7 16 10 18 25 16 33 40 43 33 27 17 30 39 61 60 58 18 25 57 76 86 87 97 99 97 96 98 103 99 97 93 91 89 87 83 82 80 77 75 75 73 72 73
3 10 15 5 14 20 13 26 41 35 39 18 12 45 50 71 61 52 44 37 50 63 70 70 77 76 89 90 91 89 90 88 85 82 78 81 81 77 70 73 71 66 64 68
2 10 10 10 31 53 25 16 40 44 39 37 33 18 11 55 58 61 63 57 44 50 57 58 62 64 74 86 81 82 82 80 78 77 76 75 70 68 63 66 64 62 62 60
15 10 5 20 52 50 11 3 33 45 51 54 20 13 34 50 55 61 61 68 70 60 54 44 58 64 64 70 79 75 67 72 69 72 73 74 70 68 65 66 67 68 69 67
6 8 7 46 22 14 6 17 28 42 48 55 50 30 40 46 53 56 60 59 62 66 64 57 46 52 57 56 55 53 56 65 58 60 65 66 69 69 68 70 71 73 75 75
3 6 17 39 35 34 18 18 31 42 53 52 49 37 39 44 47 49 49 49 51 53 52 53 52 49 50 40 34 31 28 26 35 42 46 51 55 59 64 61 63 65 68 70
14 13 35 56 20 36 35 35 40 40 45 49 41 39 39 36 38 40 41 41 39 42 45 42 39 38 39 34 28 24 24 22 17 15 21 32 40 48 55 59 60 61 63 64
9 11 50 18 61 64 60 43 45 49 44 44 35 32 36 34 29 37 34 33 32 32 36 33 28 26 22 21 18 18 20 20 19 17 17 19 28 39 48 53 56 59 59 57
6 37 26 47 71 56 49 39 37 46 60 52 46 40 30 32 22 23 32 32 30 29 26 27 24 20 14 9 5 5 13 19 22 24 26 28 32 38 46 53 57 58 56 55
18 55 52 45 50 43 42 38 31 35 43 62 57 49 35 25 23 20 27 30 29 32 32 29 22 20 16 9 7 4 8 15 25 34 38 38 39 42 46 51 56 58 56 55
53 46 28 37 36 35 37 30 28 31 35 48 56 55 48 35 30 35 38 37 35 36 37 41 38 30 23 16 16 16 19 19 20 22 27 36 43 46 46 46 44 47 53 56
57 49 44 48 48 45 38 31 26 28 29 37 41 48 48 47 38 39 47 49 54 56 56 56 56 51 44 34 30 27 26 26 27 26 25 27 38 45 48 47 44 46 51 52
51 40 47 56 58 61 53 46 20 11 20 30 35 39 40 42 45 38 47 51 56 58 58 63 70 72 67 53 42 37 33 31 32 34 31 25 30 44 48 49 47 50 53 47
52 61 53 60 69 69 64 53 40 27 24 23 23 24 27 29 33 35 39 47 54 61 66 70 74 75 67 65 58 51 40 35 35 39 33 32 31 42 47 48 45 47 50 49
54 57 55 61 66 66 69 62 49 26 22 25 20 10 22 26 29 31 38 47 59 64 60 59 63 66 64 58 49 53 48 45 42 46 44 35 36 41 46 45 49 47 50 49
48 62 73 64 60 62 67 68 62 52 29 18 9 6 3 14 25 27 30 32 36 41 46 51 57 61 64 58 46 52 54 50 51 55 50 45 40 42 52 53 55 54 51 48
34 46 57 66 64 62 64 60 67 73 62 45 32 36 30 19 12 11 5 8 10 16 23 41 48 51 55 56 45 52 56 54 54 51 54 52 52 50 52 51 47 52 50 44
30 34 43 53 65 74 78 70 69 69 69 68 63 58 54 53 53 43 37 35 34 29 23 17 32 44 42 42 43 42 47 50 51 55 50 53 55 54 58 60 61 59 53 41
33 27 33 36 44 56 69 67 66 60 61 64 65 66 64 60 61 66 59 58 49 43 48 46 30 10 20 21 21 26 40 49 55 52 57 58 62 72 68 66 57 53 48 44
25 30 23 27 29 33 40 48 55 56 56 59 65 68 63 58 63 64 67 64 61 62 66 65 64 52 42 34 31 39 48 54 57 55 48 61 57 57 54 51 54 50 52 48
17 20 24 21 28 25 21 29 35 40 44 46 37 45 56 59 55 55 52 50 55 54 62 70 82 86 92 93 75 61 52 52 51 64 56 59 57 59 64 62 60 52 51 48
22 23 15 18 23 24 23 23 22 35 30 31 38 47 43 38 48 57 61 52 43 55 67 66 68 74 81 84 91 93 89 91 88 79 65 67 64 74 67 71 73 65 67 60
22 26 23 15 21 21 23 27 22 29 25 35 32 32 38 36 38 39 52 73 47 44 44 58 64 66 70 72 75 76 78 78 75 71 73 83 71 67 67 68 71 62 66 57
13 18 23 21 13 13 19 23 22 19 18 32 31 30 29 33 32 21 31 48 61 57 66 53 46 50 58 63 67 66 68 65 63 59 65 52 53 38 48 52 52 50 51 50
Wind_Direction_500mb
258 282 289 280 277 280 274 252 241 239 231 228 230 252 287 301 287 279 237 207 197 196 199 203 207 207 220 229 230 231 232 232 233 234 236 237 239 240 242 244 242 242 239 239
261 293 281 268 266 266 256 258 269 252 253 190 63 42 4 342 288 232 202 195 196 199 197 199 206 210 218 225 229 232 232 232 231 232 234 233 233 236 239 241 242 242 242 240
276 298 314 258 261 332 70 38 315 234 301 312 51 53 26 356 342 239 199 194 192 195 196 202 206 210 217 224 227 228 229 231 231 231 231 232 234 236 238 240 242 243 245 245
275 318 220 137 42 334 62 43 23 7 0 141 108 83 40 18 16 33 205 204 195 195 197 202 207 210 216 221 224 225 229 232 233 234 235 236 237 239 242 244 246 248 248 249
98 288 286 323 41 342 345 34 17 358 14 360 95 53 28 19 29 32 81 150 189 194 198 198 203 206 214 217 220 225 230 234 236 236 236 238 241 243 245 247 249 250 251 251
84 256 211 335 333 314 268 39 3 4 3 15 35 62 345 15 38 54 77 102 135 178 194 198 202 208 214 218 219 227 232 236 238 240 241 242 244 246 248 249 251 253 255 256
231 258 223 341 323 313 155 91 351 6 8 11 35 59 34 39 44 54 67 85 100 125 143 169 197 203 212 219 229 231 238 238 239 245 247 250 252 254 254 256 256 256 259 261
277 239 198 14 345 33 8 354 358 358 359 358 1 22 41 39 39 44 53 68 86 98 99 104 124 177 193 202 217 223 229 243 245 248 249 252 254 256 256 258 260 261 263 264
312 296 321 337 319 301 315 352 348 341 342 348 352 10 35 34 34 36 40 54 68 82 92 97 108 120 131 141 162 169 176 204 234 242 245 251 255 253 253 255 258 261 261 264
319 30 331 325 30 344 339 328 321 324 326 339 344 4 6 9 21 26 26 35 51 74 79 81 91 103 110 124 145 165 164 164 171 194 227 236 238 242 247 252 255 258 261 263
253 306 317 237 326 325 327 327 329 321 320 325 330 336 353 2 4 4 13 21 30 49 64 69 80 90 102 116 137 166 184 196 205 214 224 238 247 249 249 249 251 256 264 270
313 299 292 290 305 323 319 324 322 319 312 309 313 316 322 344 338 347 350 359 10 20 37 46 59 68 72 84 107 211 241 244 245 248 249 251 255 252 251 253 255 257 260 265
303 316 313 313 317 325 321 318 319 315 297 296 297 303 300 308 331 316 320 330 348 356 4 7 11 42 46 33 349 302 274 280 277 265 262 265 267 265 259 257 256 258 261 265
0 356 349 348 332 337 328 316 287 274 280 286 283 283 289 270 286 292 298 312 320 326 334 338 345 352 356 340 319 302 292 296 308 311 275 257 258 264 267 262 261 260 258 261
6 11 360 358 3 358 351 337 292 259 263 284 274 270 269 268 264 280 289 298 305 311 319 322 324 326 325 313 304 299 290 289 295 303 307 278 270 260 263 262 253 255 258 257
1 13 14 11 10 5 3 0 326 282 300 290 275 266 265 267 257 269 284 291 296 302 305 307 306 308 309 307 300 294 286 286 283 286 296 290 282 265 268 264 255 254 257 256
8 13 12 16 16 13 10 12 2 338 326 321 305 288 260 278 256 264 282 294 298 296 298 298 298 298 295 297 296 292 280 278 280 275 281 286 279 273 273 263 256 250 251 246
33 32 29 26 23 22 22 23 24 9 338 331 308 307 263 281 284 294 299 294 291 290 288 283 282 283 282 284 280 276 262 268 267 269 279 280 272 270 269 254 248 246 242 233
31 34 36 34 34 30 29 29 31 44 68 51 42 71 211 286 291 293 294 297 299 292 281 277 278 279 282 283 267 249 243 251 253 262 264 269 270 260 261 251 241 234 221 214
22 32 34 40 34 33 32 38 43 44 57 74 90 78 79 89 112 96 38 21 8 334 321 303 295 282 278 274 262 249 241 245 250 251 247 250 251 242 245 241 221 199 189 186
5 18 29 35 36 29 29 34 38 45 49 56 65 69 75 74 70 79 81 59 46 55 43 320 288 285 279 272 269 255 240 242 245 242 240 241 227 221 201 187 184 179 176 179
12 2 15 20 29 38 34 25 37 38 44 47 48 51 58 60 65 67 63 56 52 64 67 61 65 121 223 232 230 199 202 214 221 216 220 205 198 181 174 173 172 169 173 172
22 30 358 356 3 23 45 44 38 35 33 33 38 43 45 41 42 51 49 47 50 53 62 68 75 85 100 114 144 161 166 174 174 175 157 161 162 164 164 161 159 158 159 162
10 10 20 16 17 11 17 31 37 39 32 23 26 31 34 33 35 35 36 43 53 51 55 55 62 73 80 77 81 92 105 127 133 154 149 142 137 137 144 144 140 148 150 147
36 25 14 34 24 18 33 20 27 33 31 26 43 48 49 42 39 37 29 26 39 50 50 55 58 63 67 69 75 77 77 79 83 88 96 97 98 105 105 113 118 117 116 117
30 34 35 28 30 33 28 33 49 36 38 43 45 35 46 48 45 37 29 30 35 40 48 54 55 58 67 69 68 68 71 73 73 70 77 80 73 69 73 73 83 84 87 85
32 25 33 34 28 46 41 49 52 53 60 50 42 42 56 40 42 55 39 37 45 49 45 43 52 57 64 65 66 64 63 62 62 64 63 71 74 62 63 60 58 59 61 63
Wind_Speed_850mb
17 21 33 41 51 54 30 29 17 28 23 23 20 22 17 41 73 64 67 88 89 94 100 101 102 101 107 108 105 100 101 103 100 92 89 83 78 77 76 76 74 74 74 78
11 21 47 42 46 38 44 37 33 26 23 13 17 16 30 38 50 53 69 88 94 99 99 100 107 110 110 108 102 95 96 93 88 92 89 83 78 75 75 75 72 71 74 77
11 15 33 19 13 25 24 27 8 15 5 16 18 27 37 48 38 30 67 84 94 99 101 105 107 107 110 109 100 98 95 94 90 89 88 82 78 78 78 75 72 72 72 73
7 16 10 18 25 16 33 40 43 33 27 17 30 39 61 60 58 18 25 57 76 86 87 97 99 97 96 98 103 99 97 93 91 89 87 83 82 80 77 75 75 73 72 73
3 10 15 5 14 20 13 26 41 35 39 18 12 45 50 71 61 52 44 37 50 63 70 70 77 76 89 90 91 89 90 88 85 82 78 81 81 77 70 73 71 66 64 68
2 10 10 10 31 53 25 16 40 44 39 37 33 18 11 55 58 61 63 57 44 50 57 58 62 64 74 86 81 82 82 80 78 77 76 75 70 68 63 66 64 62 62 60
15 10 5 20 52 50 11 3 33 45 51 54 20 13 34 50 55 61 61 68 70 60 54 44 58 64 64 70 79 75 67 72 69 72 73 74 70 68 65 66 67 68 69 67
6 8 7 46 22 14 6 17 28 42 48 55 50 30 40 46 53 56 60 59 62 66 64 57 46 52 57 56 55 53 56 65 58 60 65 66 69 69 68 70 71 73 75 75
3 6 17 39 35 34 18 18 31 42 53 52 49 37 39 44 47 49 49 49 51 53 52 53 52 49 50 40 34 31 28 26 35 42 46 51 55 59 64 61 63 65 68 70
14 13 35 56 20 36 35 35 40 40 45 49 41 39 39 36 38 40 41 41 39 42 45 42 39 38 39 34 28 24 24 22 17 15 21 32 40 48 55 59 60 61 63 64
9 11 50 18 61 64 60 43 45 49 44 44 35 32 36 34 29 37 34 33 32 32 36 33 28 26 22 21 18 18 20 20 19 17 17 19 28 39 48 53 56 59 59 57
6 37 26 47 71 56 49 39 37 46 60 52 46 40 30 32 22 23 32 32 30 29 26 27 24 20 14 9 5 5 13 19 22 24 26 28 32 38 46 53 57 58 56 55
18 55 52 45 50 43 42 38 31 35 43 62 57 49 35 25 23 20 27 30 29 32 32 29 22 20 16 9 7 4 8 15 25 34 38 38 39 42 46 51 56 58 56 55
53 46 28 37 36 35 37 30 28 31 35 48 56 55 48 35 30 35 38 37 35 36 37 41 38 30 23 16 16 16 19 19 20 22 27 36 43 46 46 46 44 47 53 56
57 49 44 48 48 45 38 31 26 28 29 37 41 48 48 47 38 39 47 49 54 56 56 56 56 51 44 34 30 27 26 26 27 26 25 27 38 45 48 47 44 46 51 52
51 40 47 56 58 61 53 46 20 11 20 30 35 39 40 42 45 38 47 51 56 58 58 63 70 72 67 53 42 37 33 31 32 34 31 25 30 44 48 49 47 50 53 47
52 61 53 60 69 69 64 53 40 27 24 23 23 24 27 29 33 35 39 47 54 61 66 70 74 75 67 65 58 51 40 35 35 39 33 32 31 42 47 48 45 47 50 49
54 57 55 61 66 66 69 62 49 26 22 25 20 10 22 26 29 31 38 47 59 64 60 59 63 66 64 58 49 53 48 45 42 46 44 35 36 41 46 45 49 47 50 49
48 62 73 64 60 62 67 68 62 52 29 18 9 6 3 14 25 27 30 32 36 41 46 51 57 61 64 58 46 52 54 50 51 55 50 45 40 42 52 53 55 54 51 48
34 46 57 66 64 62 64 60 67 73 62 45 32 36 30 19 12 11 5 8 10 16 23 41 48 51 55 56 45 52 56 54 54 51 54 52 52 50 52 51 47 52 50 44
30 34 43 53 65 74 78 70 69 69 69 68 63 58 54 53 53 43 37 35 34 29 23 17 32 44 42 42 43 42 47 50 51 55 50 53 55 54 58 60 61 59 53 41
33 27 33 36 44 56 69 67 66 60 61 64 65 66 64 60 61 66 59 58 49 43 48 46 30 10 20 21 21 26 40 49 55 52 57 58 62 72 68 66 57 53 48 44
25 30 23 27 29 33 40 48 55 56 56 59 65 68 63 58 63 64 67 64 61 62 66 65 64 52 42 34 31 39 48 54 57 55 48 61 57 57 54 51 54 50 52 48
17 20 24 21 28 25 21 29 35 40 44 46 37 45 56 59 55 55 52 50 55 54 62 70 82 86 92 93 75 61 52 52 51 64 56 59 57 59 64 62 60 52 51 48
22 23 15 18 23 24 23 23 22 35 30 31 38 47 43 38 48 57 61 52 43 55 67 66 68 74 81 84 91 93 89 91 88 79 65 67 64 74 67 71 73 65 67 60
22 26 23 15 21 21 23 27 22 29 25 35 32 32 38 36 38 39 52 73 47 44 44 58 64 66 70 72 75 76 78 78 75 71 73 83 71 67 67 68 71 62 66 57
13 18 23 21 13 13 19 23 22 19 18 32 31 30 29 33 32 21 31 48 61 57 66 53 46 50 58 63 67 66 68 65 63 59 65 52 53 38 48 52 52 50 51 50
Wind_Direction_850mb
258 282 289 280 277 280 274 252 241 239 231 228 230 252 287 301 287 279 237 207 197 196 199 203 207 207 220 229 230 231 232 232 233 234 236 237 239 240 242 244 242 242 239 239
261 293 281 268 266 266 256 258 269 252 253 190 63 42 4 342 288 232 202 195 196 199 197 199 206 210 218 225 229 232 232 232 231 232 234 233 233 236 239 241 242 242 242 240
276 298 314 258 261 332 70 38 315 234 301 312 51 53 26 356 342 239 199 194 192 195 196 202 206 210 217 224 227 228 229 231 231 231 231 232 234 236 238 240 242 243 245 245
275 318 220 137 42 334 62 43 23 7 0 141 108 83 40 18 16 33 205 204 195 195 197 202 207 210 216 221 224 225 229 232 233 234 235 236 237 239 242 244 246 248 248 249
98 288 286 323 41 342 345 34 17 358 14 360 95 53 28 19 29 32 81 150 189 194 198 198 203 206 214 217 220 225 230 234 236 236 236 238 241 243 245 247 249 250 251 251
84 256 211 335 333 314 268 39 3 4 3 15 35 62 345 15 38 54 77 102 135 178 194 198 202 208 214 218 219 227 232 236 238 240 241 242 244 246 248 249 251 253 255 256
231 258 223 341 323 313 155 91 351 6 8 11 35 59 34 39 44 54 67 85 100 125 143 169 197 203 212 219 229 231 238 238 239 245 247 250 252 254 254 256 256 256 259 261
277 239 198 14 345 33 8 354 358 358 359 358 1 22 41 39 39 44 53 68 86 98 99 104 124 177 193 202 217 223 229 243 245 248 249 252 254 256 256 258 260 261 263 264
312 296 321 337 319 301 315 352 348 341 342 348 352 10 35 34 34 36 40 54 68 82 92 97 108 120 131 141 162 169 176 204 234 242 245 251 255 253 253 255 258 261 261 264
319 30 331 325 30 344 339 328 321 324 326 339 344 4 6 9 21 26 26 35 51 74 79 81 91 103 110 124 145 165 164 164 171 194 227 236 238 242 247 252 255 258 261 263
253 306 317 237 326 325 327 327 329 321 320 325 330 336 353 2 4 4 13 21 30 49 64 69 80 90 102 116 137 166 184 196 205 214 224 238 247 249 249 249 251 256 264 270
313 299 292 290 305 323 319 324 322 319 312 309 313 316 322 344 338 347 350 359 10 20 37 46 59 68 72 84 107 211 241 244 245 248 249 251 255 252 251 253 255 257 260 265
303 316 313 313 317 325 321 318 319 315 297 296 297 303 300 308 331 316 320 330 348 356 4 7 11 42 46 33 349 302 274 280 277 265 262 265 267 265 259 257 256 258 261 265
0 356 349 348 332 337 328 316 287 274 280 286 283 283 289 270 286 292 298 312 320 326 334 338 345 352 356 340 319 302 292 296 308 311 275 257 258 264 267 262 261 260 258 261
6 11 360 358 3 358 351 337 292 259 263 284 274 270 269 268 264 280 289 298 305 311 319 322 324 326 325 313 304 299 290 289 295 303 307 278 270 260 263 262 253 255 258 257
1 13 14 11 10 5 3 0 326 282 300 290 275 266 265 267 257 269 284 291 296 302 305 307 306 308 309 307 300 294 286 286 283 286 296 290 282 265 268 264 255 254 257 256
8 13 12 16 16 13 10 12 2 338 326 321 305 288 260 278 256 264 282 294 298 296 298 298 298 298 295 297 296 292 280 278 280 275 281 286 279 273 273 263 256 250 251 246
33 32 29 26 23 22 22 23 24 9 338 331 308 307 263 281 284 294 299 294 291 290 288 283 282 283 282 284 280 276 262 268 267 269 279 280 272 270 269 254 248 246 242 233
31 34 36 34 34 30 29 29 31 44 68 51 42 71 211 286 291 293 294 297 299 292 281 277 278 279 282 283 267 249 243 251 253 262 264 269 270 260 261 251 241 234 221 214
22 32 34 40 34 33 32 38 43 44 57 74 90 78 79 89 112 96 38 21 8 334 321 303 295 282 278 274 262 249 241 245 250 251 247 250 251 242 245 241 221 199 189 186
5 18 29 35 36 29 29 34 38 45 49 56 65 69 75 74 70 79 81 59 46 55 43 320 288 285 279 272 269 255 240 242 245 242 240 241 227 221 201 187 184 179 176 179
12 2 15 20 29 38 34 25 37 38 44 47 48 51 58 60 65 67 63 56 52 64 67 61 65 121 223 232 230 199 202 214 221 216 220 205 198 181 174 173 172 169 173 172
22 30 358 356 3 23 45 44 38 35 33 33 38 43 45 41 42 51 49 47 50 53 62 68 75 85 100 114 144 161 166 174 174 175 157 161 162 164 164 161 159 158 159 162
10 10 20 16 17 11 17 31 37 39 32 23 26 31 34 33 35 35 36 43 53 51 55 55 62 73 80 77 81 92 105 127 133 154 149 142 137 137 144 144 140 148 150 147
36 25 14 34 24 18 33 20 27 33 31 26 43 48 49 42 39 37 29 26 39 50 50 55 58 63 67 69 75 77 77 79 83 88 96 97 98 105 105 113 118 117 116 117
30 34 35 28 30 33 28 33 49 36 38 43 45 35 46 48 45 37 29 30 35 40 48 54 55 58 67 69 68 68 71 73 73 70 77 80 73 69 73 73 83 84 87 85
32 25 33 34 28 46 41 49 52 53 60 50 42 42 56 40 42 55 39 37 45 49 45 43 52 57 64 65 66 64 63 62 62 64 63 71 74 62 63 60 58 59 61 63